N126YK KSAN-

Flight info

Callsign N126YK
Flight time N/A
Altitude
Route
Aircraft BE26/L-VGD/C

Departure

Time 2026-04-21 17:36
Airport San Diego International Airport (KSAN)

Arrival

Time N/A
Airport -
Time Latitude Longitude Altitude Speed Heading
2026-04-21 17:27 32.73353 -117.17901 19 ft 0 kts 184°
2026-04-21 17:32 32.73349 -117.17903 19 ft 4 kts 229°
2026-04-21 17:32 32.73354 -117.17937 20 ft 0 kts 282°
2026-04-21 17:34 32.73354 -117.17940 20 ft 4 kts 267°
2026-04-21 17:34 32.73339 -117.17963 20 ft 0 kts 197°
2026-04-21 17:34 32.73283 -117.17976 18 ft 6 kts 189°
2026-04-21 17:34 32.73278 -117.17977 18 ft 7 kts 185°
2026-04-21 17:35 32.73179 -117.17772 18 ft 37 kts 102°
2026-04-21 17:35 32.73098 -117.17545 16 ft 4 kts 154°
2026-04-21 17:35 32.73097 -117.17544 16 ft 2 kts 158°
2026-04-21 17:35 32.73024 -117.17572 17 ft 21 kts 276°
2026-04-21 17:36 32.73090 -117.17874 15 ft 67 kts 285°
2026-04-21 17:36 32.73266 -117.18596 71 ft 109 kts 283°
2026-04-21 17:36 32.73607 -117.19411 474 ft 107 kts 312°
2026-04-21 17:36 32.74136 -117.19966 1004 ft 100 kts 317°
2026-04-21 17:37 32.74680 -117.20484 1412 ft 101 kts 320°
2026-04-21 17:37 32.75236 -117.20995 1828 ft 101 kts 320°
2026-04-21 17:37 32.75609 -117.21324 2100 ft 101 kts 321°
2026-04-21 17:37 32.76367 -117.21998 2629 ft 102 kts 320°
2026-04-21 17:38 32.76940 -117.22504 3009 ft 103 kts 320°
2026-04-21 17:38 32.77514 -117.23007 3386 ft 103 kts 320°
2026-04-21 17:38 32.78088 -117.23510 3739 ft 102 kts 320°
2026-04-21 17:38 32.78663 -117.24005 4124 ft 102 kts 320°
2026-04-21 17:39 32.79246 -117.24497 4470 ft 102 kts 320°
2026-04-21 17:39 32.79825 -117.24972 4825 ft 100 kts 320°
2026-04-21 17:39 32.80424 -117.25448 5002 ft 116 kts 321°
2026-04-21 17:39 32.81153 -117.26042 5012 ft 137 kts 321°
2026-04-21 17:40 32.81976 -117.26721 5002 ft 150 kts 323°
2026-04-21 17:40 32.82976 -117.27222 4998 ft 161 kts 339°
2026-04-21 17:40 32.84064 -117.27612 4992 ft 165 kts 339°
2026-04-21 17:40 32.85171 -117.28012 4988 ft 167 kts 339°
2026-04-21 17:41 32.86278 -117.28411 4991 ft 166 kts 339°
2026-04-21 17:41 32.87381 -117.28810 4991 ft 165 kts 339°
2026-04-21 17:41 32.88483 -117.29206 4993 ft 165 kts 339°
2026-04-21 17:41 32.89586 -117.29604 4992 ft 165 kts 339°
2026-04-21 17:42 32.90685 -117.30000 4993 ft 165 kts 339°
2026-04-21 17:42 32.91783 -117.30396 4990 ft 165 kts 339°
2026-04-21 17:42 32.92880 -117.30791 4989 ft 165 kts 339°
2026-04-21 17:42 32.93977 -117.31187 4989 ft 165 kts 339°
2026-04-21 17:43 32.95075 -117.31582 4989 ft 165 kts 339°
2026-04-21 17:43 32.96171 -117.31976 4988 ft 164 kts 339°
2026-04-21 17:43 32.97267 -117.32372 4991 ft 165 kts 339°
2026-04-21 17:43 32.98362 -117.32763 4990 ft 165 kts 339°
2026-04-21 17:44 32.99458 -117.33157 4990 ft 164 kts 339°
2026-04-21 17:44 33.00554 -117.33550 4986 ft 165 kts 339°
2026-04-21 17:44 33.01651 -117.33946 4988 ft 165 kts 339°